Simultaneous Nadir Overpasses (SNOs) Predictions

Prediction of SNOs between NOAA-15 and METOP-C Satellite Orbit:

Table of predicted SNOs for the next 14.0 days since TLE Epoch: 4/14/2023
Index Date (NOAA-15) Time (NOAA-15) Lat,Lon (NOAA-15) SZA (NOAA-15 ) Date (METOP-C) Time (METOP-C) Lat,Lon (METOP-C) SZA (METOP-C ) Distance(km) Time Diff (sec)
1 04/25/2023 13:27:51 81.07, 16.66 69.90 04/25/2023 13:26:43 81.08, 16.49 69.85 3.12 68
2 04/25/2023 14:18:21 -81.09,-176.26 110.14 04/25/2023 14:17:23 -81.08,-176.10 110.15 2.86 58
3 04/25/2023 15:08:53 81.09, -8.92 69.85 04/25/2023 15:08:05 81.07, -9.01 69.81 2.24 48
4 04/25/2023 15:59:22 -81.08, 158.53 110.16 04/25/2023 15:58:45 -81.08, 158.41 110.19 2.30 37
5 04/25/2023 16:49:54 81.09, -34.14 69.83 04/25/2023 16:49:26 81.08, -34.13 69.82 0.54 28
6 04/25/2023 17:40:23 -81.08, 133.32 110.18 04/25/2023 17:40:06 -81.08, 133.28 110.19 0.64 17
7 04/25/2023 18:30:55 81.08, -59.35 69.81 04/25/2023 18:30:47 81.09, -59.25 69.82 1.82 8
8 04/25/2023 19:21:24 -81.08, 108.11 110.20 04/25/2023 19:21:27 -81.09, 108.16 110.18 1.63 3
9 04/25/2023 20:11:56 81.08, -84.57 69.79 04/25/2023 20:12:09 81.08, -84.75 69.78 3.12 13
10 04/25/2023 21:02:26 -81.09, 82.53 110.24 04/25/2023 21:02:49 -81.09, 82.67 110.23 2.50 23
11 04/25/2023 21:52:57 81.08,-109.78 69.77 04/25/2023 21:53:30 81.09,-109.87 69.79 1.97 33
12 04/25/2023 22:43:27 -81.09, 57.32 110.26 04/25/2023 22:44:11 -81.08, 57.17 110.27 2.88 44
13 04/25/2023 23:33:59 81.10,-135.37 69.73 04/25/2023 23:34:52 81.09,-135.36 69.74 1.00 53
14 04/26/2023 00:24:28 -81.09, 32.11 110.28 04/26/2023 00:25:32 -81.09, 32.05 110.26 1.09 64



Historial Predications of SNOs between NOAA-15 and METOP-C
